GW0032 Weather Reports


Display with metric or nautical units.
time (UTC)temp
F
wind
direction
speed
MPH
gust
MPH
rain 1hr
in
rain 24hr
in
rain mn
in
humidity
%
barometer
mb
20260506191538 68 347 2.0 11.0 0.00 0.00 0.00 49 1017.8
20260506191047 72 136 7.0 11.0 0.00 0.00 0.00 30 1017.2
20260506190544 71 204 2.0 13.0 0.00 0.00 0.00 31 1017.2
20260506190050 71 181 6.0 13.0 0.00 0.00 0.00 31 1017.4
20260506190047 68 244 3.0 11.0 0.00 0.00 0.00 50 1017.9
20260506185545 72 155 4.0 10.0 0.00 0.00 0.00 31 1017.3
20260506185049 71 87 4.0 9.0 0.00 0.00 0.00 31 1017.4
20260506184607 71 181 4.0 11.0 0.00 0.00 0.00 32 1017.4
20260506184546 66 338 4.0 11.0 0.00 0.00 0.00 54 1018.0
20260506184045 71 92 4.0 11.0 0.00 0.00 0.00 31 1017.3
20260506183546 71 148 5.0 12.0 0.00 0.00 0.00 32 1017.3
20260506183102 70 131 5.0 12.0 0.00 0.00 0.00 32 1017.3
20260506183043 66 252 5.0 10.0 0.00 0.00 0.00 55 1018.2
20260506182545 70 169 5.0 11.0 0.00 0.00 0.00 32 1017.3
20260506182047 70 159 7.0 11.0 0.00 0.00 0.00 32 1017.2
20260506181555 69 181 5.0 12.0 0.00 0.00 0.00 33 1017.2
20260506181547 65 0 3.0 9.0 0.00 0.00 0.00 56 1018.3
20260506181046 70 101 5.0 12.0 0.00 0.00 0.00 32 1017.2
20260506180545 70 105 4.0 13.0 0.00 0.00 0.00 33 1017.3
20260506180050 70 98 8.0 13.0 0.00 0.00 0.00 33 1017.3
20260506180048 64 244 6.0 12.0 0.00 0.00 0.00 57 1018.4
20260506175545 69 132 4.0 11.0 0.00 0.00 0.00 34 1017.4
20260506175045 69 140 7.0 13.0 0.00 0.00 0.00 33 1017.3
20260506174555 63 283 4.0 13.0 0.00 0.00 0.00 60 1018.6
20260506174548 69 146 6.0 13.0 0.00 0.00 0.00 34 1017.2
20260506174046 69 130 8.0 13.0 0.00 0.00 0.00 34 1017.2
20260506173546 69 141 5.0 13.0 0.00 0.00 0.00 34 1017.1
20260506173054 69 120 5.0 13.0 0.00 0.00 0.00 34 1017.0
20260506173046 62 325 3.0 9.0 0.00 0.00 0.00 60 1018.5
20260506172549 68 146 6.0 10.0 0.00 0.00 0.00 34 1016.9
20260506172045 69 155 3.0 10.0 0.00 0.00 0.00 35 1016.9
20260506171554 68 160 4.0 10.0 0.00 0.00 0.00 35 1016.9
20260506171540 62 266 3.0 11.0 0.00 0.00 0.00 61 1018.5
20260506171053 67 130 5.0 10.0 0.00 0.00 0.00 35 1016.9
20260506170551 67 105 5.0 10.0 0.00 0.00 0.00 36 1016.9
20260506170107 67 120 6.0 10.0 0.00 0.00 0.00 35 1016.8
20260506170043 61 18 3.0 8.0 0.00 0.00 0.00 62 1018.5
20260506165548 67 158 3.0 10.0 0.00 0.00 0.00 36 1016.8
20260506165046 67 127 6.0 10.0 0.00 0.00 0.00 36 1016.7
20260506164552 67 164 5.0 11.0 0.00 0.00 0.00 36 1016.7
20260506164546 60 212 4.0 10.0 0.00 0.00 0.00 63 1018.5
20260506164049 67 111 5.0 11.0 0.00 0.00 0.00 36 1016.8
20260506163545 67 71 6.0 11.0 0.00 0.00 0.00 36 1017.0
20260506163104 67 62 6.0 10.0 0.00 0.00 0.00 36 1016.9
20260506163053 60 277 2.0 8.0 0.00 0.00 0.00 64 1018.5
20260506162545 68 124 3.0 9.0 0.00 0.00 0.00 36 1016.7
20260506162045 67 108 5.0 10.0 0.00 0.00 0.00 36 1016.6
20260506161554 67 172 4.0 10.0 0.00 0.00 0.00 36 1016.6
20260506161541 60 0 2.0 4.0 0.00 0.00 0.00 63 1018.4
20260506161045 67 165 4.0 8.0 0.00 0.00 0.00 36 1016.6
20260506160545 67 123 5.0 8.0 0.00 0.00 0.00 36 1016.4
20260506160107 67 109 4.0 7.0 0.00 0.00 0.00 36 1016.3
20260506160051 58 229 0.0 4.0 0.00 0.00 0.00 67 1018.4
20260506155545 67 104 2.0 4.0 0.00 0.00 0.00 35 1016.3
20260506155053 67 0 1.0 4.0 0.00 0.00 0.00 35 1016.4
20260506154604 67 0 0.0 4.0 0.00 0.00 0.00 35 1016.3
20260506154548 57 275 0.0 4.0 0.00 0.00 0.00 66 1018.4
20260506154044 66 85 2.0 4.0 0.00 0.00 0.00 35 1016.3
20260506153546 66 145 2.0 5.0 0.00 0.00 0.00 36 1016.2
20260506153054 65 82 2.0 6.0 0.00 0.00 0.00 36 1016.1
20260506153052 57 0 1.0 3.0 0.00 0.00 0.00 70 1018.3
20260506152546 65 81 2.0 6.0 0.00 0.00 0.00 36 1016.1
20260506152046 65 118 3.0 6.0 0.00 0.00 0.00 37 1016.1
20260506151555 64 192 3.0 5.0 0.00 0.00 0.00 37 1016.2
20260506151543 57 0 0.0 0.0 0.00 0.00 0.00 72 1018.4
20260506151048 64 101 3.0 5.0 0.00 0.00 0.00 38 1016.2
20260506150545 64 141 3.0 5.0 0.00 0.00 0.00 37 1016.2
20260506150057 55 0 0.0 1.0 0.00 0.00 0.00 78 1018.4
20260506150047 63 119 3.0 5.0 0.00 0.00 0.00 39 1016.2
20260506145546 63 102 3.0 5.0 0.00 0.00 0.00 39 1016.2
20260506145049 63 150 3.0 6.0 0.00 0.00 0.00 39 1016.0
20260506144608 62 105 3.0 6.0 0.00 0.00 0.00 40 1016.0
20260506144602 53 0 0.0 0.0 0.00 0.00 0.00 82 1018.5
20260506144045 62 146 3.0 5.0 0.00 0.00 0.00 39 1015.9
20260506143545 62 119 2.0 4.0 0.00 0.00 0.00 40 1015.8
20260506143055 62 126 2.0 4.0 0.00 0.00 0.00 41 1015.7
20260506142545 61 97 2.0 3.0 0.00 0.00 0.00 41 1015.7
20260506142044 61 120 1.0 3.0 0.00 0.00 0.00 41 1015.7
20260506141550 61 0 0.0 0.0 0.00 0.00 0.00 42 1015.6
20260506141546 50 0 0.0 0.0 0.00 0.00 0.00 89 1018.3
20260506141046 60 0 0.0 0.0 0.00 0.00 0.00 43 1015.6
20260506140547 59 0 0.0 0.0 0.00 0.00 0.00 44 1015.5
20260506140048 58 0 0.0 0.0 0.00 0.00 0.00 46 1015.5
20260506135545 57 0 0.0 0.0 0.00 0.00 0.00 48 1015.5
20260506135044 56 0 0.0 0.0 0.00 0.00 0.00 49 1015.4
20260506134553 56 0 0.0 0.0 0.00 0.00 0.00 50 1015.3
20260506134547 45 0 0.0 2.0 0.00 0.00 0.00 91 1018.2
20260506134046 55 0 0.0 0.0 0.00 0.00 0.00 51 1015.2
20260506133545 53 0 0.0 0.0 0.00 0.00 0.00 54 1015.2
20260506133050 52 0 0.0 3.0 0.00 0.00 0.00 55 1015.1
20260506133043 44 0 0.0 0.0 0.00 0.00 0.00 92 1018.1
20260506132545 52 0 0.0 3.0 0.00 0.00 0.00 56 1015.0
20260506132049 51 335 0.0 4.0 0.00 0.00 0.00 57 1015.1
20260506131549 50 315 1.0 5.0 0.00 0.00 0.00 58 1015.0
20260506131547 43 0 0.0 0.0 0.00 0.00 0.00 91 1018.0
20260506131045 50 307 3.0 6.0 0.00 0.00 0.00 58 1015.0
20260506130545 50 323 4.0 6.0 0.00 0.00 0.00 59 1015.0
20260506130114 43 0 0.0 2.0 0.00 0.00 0.00 91 1017.9
20260506130058 49 6 3.0 5.0 0.00 0.00 0.00 60 1014.9
20260506125550 49 329 2.0 4.0 0.00 0.00 0.00 61 1014.9
20260506125045 48 341 3.0 4.0 0.00 0.00 0.00 61 1014.9
20260506124549 49 328 3.0 4.0 0.00 0.00 0.00 61 1014.9
20260506124045 49 323 3.0 4.0 0.00 0.00 0.00 60 1014.7
20260506123545 49 330 3.0 4.0 0.00 0.00 0.00 59 1014.8
20260506123049 50 336 2.0 3.0 0.00 0.00 0.00 58 1014.8
20260506123047 43 0 0.0 1.0 0.00 0.01 0.00 91 1017.8
20260506122547 49 289 2.0 4.0 0.00 0.00 0.00 60 1014.7
20260506122045 49 317 1.0 4.0 0.00 0.00 0.00 60 1014.6
20260506121556 49 323 3.0 6.0 0.00 0.00 0.00 60 1014.6
20260506121550 43 0 0.0 0.0 0.00 0.01 0.00 91 1017.7
20260506121045 49 338 3.0 6.0 0.00 0.00 0.00 60 1014.6
20260506120608 49 330 4.0 6.0 0.00 0.00 0.00 60 1014.5
20260506120108 50 354 4.0 5.0 0.00 0.00 0.00 59 1014.5
20260506120039 44 84 0.0 1.0 0.00 0.01 0.00 91 1017.7
20260506115545 50 355 3.0 5.0 0.00 0.00 0.00 59 1014.5
20260506115045 50 338 3.0 5.0 0.00 0.00 0.00 59 1014.5
20260506114556 50 340 3.0 5.0 0.00 0.00 0.00 59 1014.5
20260506114537 44 0 0.0 1.0 0.00 0.05 0.00 91 1017.6
20260506114044 49 334 3.0 4.0 0.00 0.00 0.00 59 1014.5
20260506113545 49 338 2.0 4.0 0.00 0.00 0.00 58 1014.4
20260506113056 49 340 2.0 3.0 0.00 0.00 0.00 58 1014.3
20260506113051 44 0 0.0 2.0 0.00 0.05 0.00 91 1017.7
20260506112546 49 327 2.0 4.0 0.00 0.00 0.00 58 1014.3
20260506112045 50 343 3.0 4.0 0.00 0.00 0.00 58 1014.2
20260506111550 50 356 0.0 4.0 0.00 0.00 0.00 57 1014.2
20260506111544 45 88 1.0 4.0 0.00 0.05 0.00 91 1017.5
20260506111045 50 333 2.0 4.0 0.00 0.00 0.00 58 1014.1
20260506110546 50 309 2.0 4.0 0.00 0.00 0.00 58 1014.1
20260506110054 50 333 3.0 4.0 0.00 0.00 0.00 57 1013.9
20260506110043 44 0 0.0 4.0 0.00 0.05 0.00 91 1017.5
20260506105545 51 11 0.0 4.0 0.00 0.00 0.00 56 1014.0
20260506105045 51 358 3.0 5.0 0.00 0.00 0.00 55 1013.9
20260506104556 44 105 2.0 4.0 0.00 0.06 0.00 92 1017.6
20260506104553 52 321 3.0 5.0 0.00 0.00 0.00 54 1014.0
20260506104044 52 318 0.0 3.0 0.00 0.00 0.00 53 1014.0
20260506103550 53 17 1.0 3.0 0.00 0.00 0.00 51 1014.0
20260506103055 54 7 0.0 2.0 0.00 0.00 0.00 50 1013.9
20260506103045 45 0 0.0 0.0 0.00 0.06 0.00 91 1017.5
20260506102549 54 0 0.0 4.0 0.00 0.00 0.00 49 1013.9
20260506102049 55 0 1.0 4.0 0.00 0.00 0.00 48 1013.8
20260506101552 55 289 0.0 4.0 0.00 0.00 0.00 49 1013.8
20260506101546 45 67 0.0 2.0 0.00 0.06 0.00 91 1017.4
20260506101050 54 289 2.0 4.0 0.00 0.00 0.00 49 1013.8
20260506100550 55 304 2.0 5.0 0.00 0.00 0.00 49 1013.9
20260506100051 55 302 3.0 5.0 0.00 0.00 0.00 50 1013.9
20260506095551 54 276 3.0 5.0 0.00 0.00 0.00 51 1013.7
20260506095052 53 279 2.0 5.0 0.00 0.00 0.00 52 1013.8
20260506094551 52 263 2.0 5.0 0.00 0.00 0.00 53 1013.8
20260506094544 46 0 0.0 2.0 0.00 0.06 0.00 91 1017.3
20260506094048 51 297 3.0 5.0 0.00 0.00 0.00 55 1013.8
20260506093552 51 297 2.0 3.0 0.00 0.00 0.00 54 1013.8
20260506093053 50 0 0.0 0.0 0.00 0.00 0.00 56 1013.9
20260506093042 46 0 0.0 3.0 0.00 0.06 0.00 91 1017.3
20260506092549 50 0 0.0 1.0 0.00 0.00 0.00 55 1013.9
20260506092052 50 0 0.0 2.0 0.00 0.00 0.00 55 1013.9
20260506091559 50 0 0.0 4.0 0.00 0.00 0.00 55 1013.8
20260506091547 46 67 0.0 3.0 0.00 0.06 0.00 91 1017.4
20260506091049 50 290 1.0 4.0 0.00 0.00 0.00 56 1013.7
20260506090549 51 310 2.0 4.0 0.00 0.00 0.00 54 1013.8
20260506090056 50 269 1.0 3.0 0.00 0.00 0.00 57 1013.7
20260506090046 46 67 0.0 2.0 0.00 0.06 0.00 91 1017.5
20260506085549 49 0 0.0 0.0 0.00 0.00 0.00 56 1013.8
20260506085049 50 0 0.0 0.0 0.00 0.00 0.00 56 1013.8
20260506084609 49 0 0.0 0.0 0.00 0.00 0.00 56 1013.9
20260506084552 46 0 0.0 0.0 0.00 0.06 0.00 90 1017.6
20260506084050 50 0 0.0 0.0 0.00 0.00 0.00 55 1013.9
20260506083550 50 0 0.0 0.0 0.00 0.00 0.00 55 1013.8
20260506083053 47 70 0.0 2.0 0.00 0.06 0.00 89 1017.7
20260506083050 51 0 0.0 3.0 0.00 0.00 0.00 56 1013.8
20260506082550 51 0 0.0 3.0 0.00 0.00 0.00 55 1013.8
20260506082126 52 346 2.0 4.0 0.00 0.00 0.00 54 1013.9
20260506081604 48 0 0.0 0.0 0.00 0.06 0.00 88 1017.8
20260506081553 52 346 2.0 4.0 0.00 0.00 0.00 54 1013.8
20260506081043 52 345 0.0 3.0 0.00 0.00 0.00 53 1013.8
20260506080545 52 347 1.0 4.0 0.00 0.00 0.00 53 1014.0
20260506073058 55 0 0.0 5.0 0.00 0.00 0.00 49 1013.7
20260506073050 50 0 0.0 1.0 0.00 0.06 0.00 88 1018.4
20260506072542 56 66 0.0 5.0 0.00 0.00 0.00 47 1013.6
20260506072047 57 89 0.0 4.0 0.00 0.00 0.00 46 1013.5
20260506071553 56 177 2.0 5.0 0.00 0.00 0.00 47 1013.4
20260506071546 50 0 0.0 0.0 0.00 0.06 0.00 88 1018.3
20260506071050 56 137 3.0 5.0 0.00 0.00 0.00 48 1013.4
20260506070547 55 108 0.0 3.0 0.00 0.00 0.00 48 1013.4
20260506062044 55 131 0.0 0.0 0.00 0.00 0.00 49 1013.1
20260506061600 56 0 0.0 3.0 0.00 0.00 0.00 46 1013.1
20260506061544 51 0 0.0 0.0 0.00 0.06 0.06 88 1017.9
20260506061044 57 0 0.0 4.0 0.00 0.00 0.00 45 1013.1
20260506060546 58 0 0.0 8.0 0.00 0.00 0.00 45 1013.1
20260506051047 56 203 0.0 0.0 0.00 0.00 0.00 39 1012.8
20260506050544 56 0 0.0 0.0 0.00 0.00 0.00 39 1012.7
20260506050110 55 0 0.0 0.0 0.00 0.00 0.00 39 1012.5
20260506045046 55 0 0.0 2.0 0.00 0.00 0.00 39 1012.5
20260506044555 55 341 1.0 2.0 0.00 0.00 0.00 39 1012.5
20260506044550 52 244 1.0 7.0 0.00 0.06 0.06 81 1017.2
20260506044044 55 195 0.0 2.0 0.00 0.00 0.00 38 1012.4
20260506043547 55 0 0.0 2.0 0.00 0.00 0.00 37 1012.6
20260506043049 57 0 0.0 2.0 0.00 0.00 0.00 35 1012.6
20260506043042 52 209 2.0 8.0 0.00 0.06 0.06 80 1017.1
20260506042546 58 229 1.0 3.0 0.00 0.00 0.00 36 1012.5
20260506042045 58 209 1.0 3.0 0.00 0.00 0.00 36 1012.6
20260506041548 58 206 1.0 3.0 0.00 0.00 0.00 35 1012.5
20260506041541 52 243 1.0 8.0 0.00 0.06 0.06 79 1016.7
20260506041044 59 226 1.0 3.0 0.00 0.00 0.00 35 1012.5
20260506040545 59 223 2.0 4.0 0.00 0.00 0.00 35 1012.4
20260506040051 59 215 2.0 6.0 0.00 0.00 0.00 35 1012.4
20260506035545 59 229 3.0 6.0 0.00 0.00 0.00 35 1012.4
20260506035045 59 232 3.0 6.0 0.00 0.00 0.00 35 1012.2
20260506034606 53 226 6.0 11.0 0.00 0.06 0.06 77 1016.4
20260506034603 59 217 3.0 6.0 0.00 0.00 0.00 34 1012.1
20260506034045 60 219 4.0 7.0 0.00 0.00 0.00 34 1012.0
20260506033544 60 228 3.0 7.0 0.00 0.00 0.00 34 1012.0
20260506033102 53 222 3.0 11.0 0.00 0.06 0.06 75 1016.2
20260506033051 60 217 2.0 5.0 0.00 0.00 0.00 34 1012.0
20260506032545 60 229 2.0 5.0 0.00 0.00 0.00 34 1012.1
20260506032046 60 216 3.0 7.0 0.00 0.00 0.00 34 1011.9
20260506031554 60 214 3.0 8.0 0.00 0.00 0.00 34 1011.9
20260506031549 54 228 5.0 10.0 0.00 0.06 0.06 74 1016.1
20260506031049 61 226 4.0 8.0 0.00 0.00 0.00 33 1011.8
20260506030544 61 225 5.0 7.0 0.00 0.00 0.00 33 1011.7
20260506030055 61 226 4.0 7.0 0.00 0.00 0.00 33 1011.7
20260506030049 54 213 5.0 11.0 0.00 0.06 0.06 73 1015.9
20260506025544 61 229 4.0 8.0 0.00 0.00 0.00 33 1011.6
20260506025044 61 238 4.0 8.0 0.00 0.00 0.00 33 1011.6
20260506024559 61 260 5.0 9.0 0.00 0.00 0.00 33 1011.5
20260506024551 54 210 7.0 13.0 0.00 0.06 0.06 71 1015.8
20260506024044 62 252 5.0 9.0 0.00 0.00 0.00 32 1011.5
20260506023543 62 236 6.0 11.0 0.00 0.00 0.00 32 1011.3
20260506023054 55 227 6.0 11.0 0.00 0.06 0.06 70 1015.4
20260506022544 62 224 7.0 11.0 0.00 0.00 0.00 31 1011.1
20260506022047 62 220 7.0 11.0 0.00 0.00 0.00 31 1011.1
20260506021602 62 213 4.0 11.0 0.00 0.00 0.00 31 1011.1
20260506021549 55 234 6.0 13.0 0.00 0.06 0.06 69 1015.2
20260506021045 63 244 7.0 11.0 0.00 0.00 0.00 31 1010.9
20260506020546 63 236 6.0 10.0 0.00 0.00 0.00 30 1011.0
20260506020054 64 238 5.0 10.0 0.00 0.00 0.00 30 1010.9
20260506020047 55 242 6.0 13.0 0.00 0.06 0.06 69 1015.0
20260506015547 64 248 7.0 11.0 0.00 0.00 0.00 30 1010.8
20260506015047 64 217 6.0 11.0 0.00 0.00 0.00 29 1010.7
20260506014554 65 237 6.0 14.0 0.00 0.00 0.00 29 1010.7
20260506014546 56 277 7.0 15.0 0.00 0.06 0.06 70 1014.8
20260506014046 65 255 8.0 14.0 0.00 0.00 0.00 29 1010.7
20260506013545 65 236 9.0 14.0 0.00 0.00 0.00 29 1010.6
20260506013057 65 264 6.0 13.0 0.00 0.00 0.00 28 1010.5
20260506013053 56 244 8.0 15.0 0.00 0.06 0.06 68 1014.6
20260506012544 65 227 6.0 13.0 0.00 0.00 0.00 28 1010.4
20260506012046 66 245 7.0 14.0 0.00 0.00 0.00 28 1010.4
20260506011602 65 219 5.0 14.0 0.00 0.00 0.00 27 1010.4
20260506011547 56 255 10.0 15.0 0.00 0.06 0.06 69 1014.5
20260506011044 65 217 9.0 14.0 0.00 0.00 0.00 28 1010.4
20260506010542 65 194 9.0 13.0 0.00 0.00 0.00 28 1010.3
20260506010117 57 229 10.0 15.0 0.00 0.06 0.06 68 1014.6
20260506010052 65 214 7.0 14.0 0.00 0.00 0.00 28 1010.4
20260506005541 65 229 7.0 15.0 0.00 0.00 0.00 28 1010.3
20260506005045 65 221 10.0 15.0 0.00 0.00 0.00 28 1010.3
20260506004556 66 216 9.0 15.0 0.00 0.00 0.00 28 1010.3
20260506004551 57 227 10.0 17.0 0.00 0.06 0.06 67 1014.3
20260506004045 66 197 8.0 15.0 0.00 0.00 0.00 28 1010.3
20260506003547 66 237 10.0 15.0 0.00 0.00 0.00 28 1010.3
20260506003055 66 233 6.0 14.0 0.00 0.00 0.00 29 1010.2
20260506003048 59 244 9.0 19.0 0.00 0.06 0.06 63 1014.3
20260506002544 66 294 8.0 14.0 0.00 0.00 0.00 29 1010.3
20260506002044 65 225 8.0 12.0 0.00 0.00 0.00 28 1010.2
20260506001555 60 229 10.0 18.0 0.00 0.06 0.06 62 1014.1
20260506001048 65 311 3.0 14.0 0.00 0.00 0.00 28 1010.1
20260506000546 66 240 8.0 14.0 0.00 0.00 0.00 28 1010.2
20260506000100 65 226 4.0 10.0 0.00 0.00 0.00 28 1010.2
20260506000043 60 232 11.0 19.0 0.00 0.06 0.06 62 1014.2
20260505235546 64 242 4.0 12.0 0.00 0.00 0.00 29 1010.2
20260505235047 65 210 5.0 12.0 0.00 0.00 0.00 28 1010.2
20260505234606 65 219 5.0 12.0 0.00 0.00 0.00 28 1010.1
20260505234546 60 242 11.0 21.0 0.00 0.06 0.06 60 1014.0
20260505234044 65 226 4.0 11.0 0.00 0.00 0.00 29 1010.1
20260505233544 66 243 5.0 9.0 0.00 0.00 0.00 29 1010.2
20260505233057 60 240 10.0 19.0 0.00 0.06 0.06 57 1014.1
20260505233051 65 179 2.0 11.0 0.00 0.00 0.00 29 1010.0
20260505232544 65 160 5.0 11.0 0.00 0.00 0.00 29 1010.0
20260505232046 65 248 4.0 11.0 0.00 0.00 0.00 29 1010.0
20260505231607 65 222 4.0 14.0 0.00 0.00 0.00 29 1010.1
20260505231548 59 204 10.0 17.0 0.00 0.06 0.06 61 1014.2
20260505231044 65 210 9.0 14.0 0.00 0.00 0.00 29 1010.1
20260505230544 66 229 6.0 12.0 0.00 0.00 0.00 28 1010.1
20260505230054 59 244 8.0 15.0 0.00 0.06 0.06 60 1014.2
20260505225549 67 252 5.0 13.0 0.00 0.00 0.00 27 1010.1
20260505225044 67 174 6.0 13.0 0.00 0.00 0.00 28 1010.1
20260505224557 66 207 8.0 13.0 0.00 0.00 0.00 28 1010.2
20260505224544 58 273 9.0 15.0 0.00 0.06 0.06 61 1014.4
20260505224048 66 278 7.0 13.0 0.00 0.00 0.00 28 1010.3
20260505223544 66 176 4.0 14.0 0.00 0.00 0.00 29 1010.3
20260505223104 65 213 9.0 15.0 0.00 0.00 0.00 28 1010.4
20260505223048 59 258 9.0 17.0 0.00 0.06 0.06 61 1014.4
20260505222545 66 196 10.0 15.0 0.00 0.00 0.00 28 1010.4
20260505222048 65 171 6.0 15.0 0.00 0.00 0.00 28 1010.4
20260505221600 66 155 7.0 15.0 0.00 0.00 0.00 27 1010.6
20260505221549 60 186 7.0 17.0 0.00 0.06 0.06 60 1014.4
20260505221046 65 139 5.0 14.0 0.00 0.00 0.00 27 1010.7
20260505220544 66 231 8.0 15.0 0.00 0.00 0.00 27 1010.7
20260505220058 66 174 8.0 15.0 0.00 0.00 0.00 27 1010.8
20260505220053 59 215 8.0 18.0 0.00 0.06 0.06 61 1014.5
20260505215545 67 160 7.0 14.0 0.00 0.00 0.00 27 1010.9
20260505215046 65 245 5.0 19.0 0.00 0.00 0.00 28 1010.9
20260505214614 65 184 8.0 19.0 0.00 0.00 0.00 29 1010.9
20260505214539 61 234 9.0 17.0 0.00 0.06 0.06 59 1014.6
20260505214044 65 176 8.0 19.0 0.00 0.00 0.00 30 1010.8
20260505213544 64 208 7.0 13.0 0.00 0.00 0.00 30 1011.0
20260505213213 64 214 5.0 13.0 0.00 0.00 0.00 30 1011.1
20260505213050 61 242 8.0 20.0 0.00 0.06 0.06 57 1014.7
20260505212548 64 223 7.0 16.0 0.00 0.00 0.00 29 1011.2
20260505212043 65 152 11.0 16.0 0.00 0.00 0.00 29 1011.3
20260505211551 61 231 12.0 18.0 0.00 0.06 0.06 57 1014.7
20260505211549 66 199 10.0 16.0 0.00 0.00 0.00 29 1011.4
20260505211046 66 192 9.0 15.0 0.00 0.00 0.00 29 1011.4
20260505210542 65 146 6.0 17.0 0.00 0.00 0.00 30 1011.4
20260505210052 60 196 10.0 18.0 0.00 0.06 0.06 60 1014.9
20260505210050 65 220 11.0 17.0 0.00 0.00 0.00 30 1011.5
20260505205545 65 157 6.0 16.0 0.00 0.00 0.00 31 1011.3
20260505205050 64 217 8.0 17.0 0.00 0.00 0.00 30 1011.5
20260505204556 65 158 7.0 17.0 0.00 0.00 0.00 30 1011.4
20260505204543 61 321 9.0 18.0 0.00 0.06 0.06 59 1014.8
20260505204045 65 171 7.0 17.0 0.00 0.00 0.00 30 1011.4
20260505203546 64 213 9.0 15.0 0.00 0.00 0.00 32 1011.3
20260505203054 63 224 9.0 14.0 0.00 0.00 0.00 32 1011.4
20260505203050 61 218 3.0 18.0 0.00 0.06 0.06 60 1014.8
20260505202544 63 206 8.0 14.0 0.00 0.00 0.00 32 1011.4
20260505202043 63 217 10.0 15.0 0.00 0.00 0.00 32 1011.4
20260505201556 63 177 10.0 15.0 0.00 0.00 0.00 32 1011.4
20260505201550 60 224 5.0 11.0 0.00 0.06 0.06 62 1014.9
20260505201044 62 169 7.0 20.0 0.00 0.00 0.00 33 1011.4
20260505200545 62 195 9.0 20.0 0.00 0.00 0.00 33 1011.4
20260505200059 63 186 10.0 17.0 0.00 0.00 0.00 33 1011.4
20260505200047 57 215 7.0 12.0 0.00 0.06 0.06 65 1015.2
20260505195544 63 160 7.0 16.0 0.00 0.00 0.00 32 1011.5
20260505195154 63 257 7.0 16.0 0.00 0.00 0.00 31 1011.4
20260505194619 63 176 6.0 18.0 0.00 0.00 0.00 31 1011.4
20260505194548 58 202 7.0 15.0 0.00 0.06 0.06 66 1015.3
20260505194045 63 249 9.0 18.0 0.00 0.00 0.00 31 1011.5
20260505193559 63 236 11.0 18.0 0.00 0.00 0.00 31 1011.4
20260505193052 62 148 8.0 16.0 0.00 0.00 0.00 31 1011.4
20260505193045 57 227 8.0 13.0 0.00 0.06 0.06 66 1015.4
20260505192546 62 212 4.0 16.0 0.00 0.00 0.00 32 1011.5
20260505192044 63 217 10.0 16.0 0.00 0.00 0.00 32 1011.6
20260505191600 58 213 6.0 14.0 0.00 0.06 0.06 67 1015.4
20260505191554 62 197 3.0 16.0 0.00 0.00 0.00 32 1011.5